Regional Weather Roundup
Issued by NWS Sioux Falls, SD

Home | Current Version | Previous Version | Text Only | Print | Product List | Glossary Off
Versions: 1 2 3 4 5 6 7 8 9 10 11 12 13 14 15 16 17 18 19 20 21 22 23 24 25 26 27 28 29 30 31 32 33 34 35 36 37 38 39 40 41 42 43 44 45 46 47 48 49 50

000
ASUS43 KFSD 221102
RWRFSD

WEATHER ROUNDUP FOR SE SOUTH DAKOTA/SW MINNESOTA/NW IOWA
NATIONAL WEATHER SERVICE SIOUX FALLS SD
500 AM CST SAT NOV 22 2014

NOTE: "FAIR" INDICATES FEW OR NO CLOUDS BELOW 12,000 FEET WITH NO
SIGNIFICANT WEATHER AND OR OBSTRUCTIONS TO VISIBILITY.


SDZ038>040-050-052>070-221200-
SOUTHEAST SOUTH DAKOTA

CITY           SKY/WX    TMP DP  RH WIND       PRES   REMARKS
CHAMBERLAIN    CLEAR     20  19  95 CALM      29.73F
HURON          CLEAR     25  24  96 S5        29.73F FOG     WCI  19
MADISON        FAIR      25  25 100 S9        29.75F WCI  15
MITCHELL       CLEAR     26  24  92 S7        29.75F FOG     WCI  18
SIOUX FALLS    PTCLDY    31  29  92 SW7       29.78F WCI  24
WINNER         FAIR      34  24  67 SW9       29.72F WCI  27
YANKTON        CLEAR     30  28  93 S8        29.79F WCI  23
$$

MNZ071-072-080-081-089-090-097-098-221200-
SOUTHWEST MINNESOTA

CITY           SKY/WX    TMP DP  RH WIND       PRES   REMARKS
FAIRMONT       CLOUDY    36  32  87 SW9       29.82F VSB 1/2
JACKSON        FOG       34  32  93 SW17      29.80F VSB 1   WCI  23
LUVERNE        FOG       32  32 100 S8        29.80S VSB 1/2 WCI  25
MARSHALL       PTCLDY    34  28  80 SW13      29.75S WCI  25
MONTEVIDEO     PTCLDY    28  27  93 SW6       29.74F WCI  22
PIPESTONE      PTCLDY    25  23  93 S9        29.77S FOG     WCI  15
REDWOOD FALLS  CLEAR     27  25  92 S5        29.77S WCI  22
TRACY          PTCLDY    33  31  91 SW16      29.76S WCI  23
WINDOM         FOG       36  34  93 SW15G21   29.78F VSB 3/4
WORTHINGTON    CLOUDY    34  34 100 SW20      29.79F VSB 1/4 WCI  22
$$

IAZ001>003-012>014-020>022-031-032-NEZ013-014-SDZ071-221200-
NORTHWEST IOWA

CITY           SKY/WX    TMP DP  RH WIND       PRES   REMARKS
CHEROKEE       CLOUDY    35  35 100 S10       29.84F FOG     WCI  27
DENISON        FOG       36  36 100 SW9       29.86F VSB 3/4
ESTHERVILLE    FOG       34  34 100 SW12      29.82F VSB 1/2 WCI  25
LE MARS        FOG       36  36 100 S8        29.83F VSB 3/4
ORANGE CITY    FOG       36  34  93 S13       29.81F VSB 1/4
SHELDON        FOG       36  36 100 S12       29.80F VSB 1/4
SIOUX CITY     CLOUDY    38  35  89 S10       29.86F FOG
SPENCER        FOG       35  35 100 SW6       29.84F VSB 1/4
STORM LAKE     FOG       36  36 100 SW17      29.84F VSB 1/4
$$

ABBREVIATIONS USED IN REMARKS
   TC - TEMPERATURE IN CELSIUS
  WCI - WIND CHILL INDEX
   HX - HEAT INDEX
  VSB - VISIBILITY



USA.gov is the U.S. government's official web portal to all federal, state and local government web resources and services.